Regional Weather Roundup
Issued by NWS Sioux Falls, SD

Home | Current Version | Previous Version | Text Only | Print | Product List | Glossary Off
Versions: 1 2 3 4 5 6 7 8 9 10 11 12 13 14 15 16 17 18 19 20 21 22 23 24 25 26 27 28 29 30 31 32 33 34 35 36 37 38 39 40 41 42 43 44 45 46 47 48 49 50

912
ASUS43 KFSD 270602
RWRFSD

WEATHER ROUNDUP FOR SE SOUTH DAKOTA/SW MINNESOTA/NW IOWA
NATIONAL WEATHER SERVICE SIOUX FALLS SD
100 AM CDT MON MAR 27 2017

NOTE: "FAIR" INDICATES FEW OR NO CLOUDS BELOW 12,000 FEET WITH NO
SIGNIFICANT WEATHER AND OR OBSTRUCTIONS TO VISIBILITY.


SDZ038>040-050-052>070-270700-
SOUTHEAST SOUTH DAKOTA

CITY           SKY/WX    TMP DP  RH WIND       PRES   REMARKS
BROOKINGS      FOG       34  34 100 CALM      29.94R VSB 3/4
CHAMBERLAIN    FOG       31  31 100 CALM      29.96F VSB 1
6HR MIN TEMP:  31; 6HR MAX TEMP:  48;

HURON          CLOUDY    38  36  92 W5        29.95F
6HR MIN TEMP:  37; 6HR MAX TEMP:  47;

MADISON        FOG       34  34 100 SW3       29.95R VSB 1/2
MITCHELL       CLEAR     38  36  92 CALM      29.97R
6HR MIN TEMP:  37; 6HR MAX TEMP:  49;

SIOUX FALLS    CLOUDY    43  39  86 CALM      29.95F
6HR MIN TEMP:  43; 6HR MAX TEMP:  46;

WINNER         CLOUDY    37  33  85 S7        29.96F
YANKTON        CLOUDY    45  39  81 CALM      29.95S
$$

MNZ071-072-080-081-089-090-097-098-270700-
SOUTHWEST MINNESOTA

CITY           SKY/WX    TMP DP  RH WIND       PRES   REMARKS
FAIRMONT       CLOUDY    39  37  92 NW3       29.94F
JACKSON        CLOUDY    37  37 100 CALM      29.94F FOG
MARSHALL       CLOUDY    38  35  89 SW5       29.94F
6HR MIN TEMP:  35; 6HR MAX TEMP:  43;

MONTEVIDEO     CLOUDY    36  34  93 NW5       29.96S
PIPESTONE      FOG       34  30  86 CALM      29.93S VSB 1
REDWOOD FALLS  CLOUDY    40  36  86 SE3       29.94F
TRACY          CLOUDY    40  38  92 SW5       29.94F
WINDOM         PTCLDY    39  37  93 CALM      29.94S
WORTHINGTON    CLOUDY    38  37  97 W5        29.93F
$$

IAZ001>003-012>014-020>022-031-032-NEZ013-014-SDZ071-270700-
NORTHWEST IOWA

CITY           SKY/WX    TMP DP  RH WIND       PRES   REMARKS
CHEROKEE       CLOUDY    42  40  93 N3        29.94S
ESTHERVILLE    CLOUDY    38  38 100 W6        29.93S
LE MARS        CLOUDY    43  39  87 NE5       29.96S
ORANGE CITY    CLOUDY    41  39  93 CALM      29.94F
SHELDON        CLOUDY    39  39 100 N5        29.92F
SIOUX CITY     CLOUDY    45  40  82 N3        29.95F
6HR MIN TEMP:  44; 6HR MAX TEMP:  48;

SPENCER        CLOUDY    41  38  89 N5        29.94F
6HR MIN TEMP:  41; 6HR MAX TEMP:  44;

STORM LAKE     CLOUDY    39  37  93 N5        29.93F
$$

ABBREVIATIONS USED IN REMARKS
   TC - TEMPERATURE IN CELSIUS
  WCI - WIND CHILL INDEX
   HX - HEAT INDEX
  VSB - VISIBILITY





USA.gov is the U.S. government's official web portal to all federal, state and local government web resources and services.